CW1662 Weather Reports


Display with metric or nautical units.
time (UTC)temp
F
wind
direction
speed
MPH
gust
MPH
rain 1hr
in
rain 24hr
in
rain mn
in
humidity
%
barometer
mb
20260831174326 84 191 0.0 4.0 0.00 0.12 0.00 71 1018.5
20260831173850 84 247 0.0 2.0 0.00 0.12 0.00 74 1018.5
20260831173334 84 247 1.0 2.0 0.00 0.12 0.00 72 1018.5
20260831172839 84 247 0.0 1.0 0.00 0.12 0.00 73 1018.5
20260831172401 83 247 0.0 2.0 0.00 0.12 0.00 74 1018.5
20260831171847 83 247 1.0 2.0 0.00 0.12 0.00 76 1018.5
20260831171335 83 247 1.0 2.0 0.00 0.12 0.00 75 1018.6
20260831170839 83 247 0.0 2.0 0.00 0.12 0.00 77 1018.6
20260831170344 83 247 1.0 2.0 0.00 0.12 0.00 77 1018.5
20260831165832 82 247 1.0 3.0 0.00 0.12 0.00 76 1018.7
20260831165336 83 247 1.0 3.0 0.00 0.12 0.00 75 1018.7
20260831164840 83 247 0.0 3.0 0.00 0.12 0.00 75 1018.7
20260831164325 83 247 1.0 4.0 0.00 0.12 0.00 75 1018.6
20260831163829 84 253 2.0 4.0 0.00 0.12 0.00 74 1018.7
20260831163336 84 207 1.0 3.0 0.00 0.12 0.00 72 1018.8
20260831162844 84 207 1.0 3.0 0.00 0.12 0.00 72 1018.8
20260831162327 84 207 0.0 1.0 0.00 0.12 0.00 73 1018.9
20260831161832 83 207 0.0 2.0 0.00 0.12 0.00 72 1018.9
20260831161356 83 207 0.0 2.0 0.00 0.12 0.00 73 1018.9
20260831160840 83 207 1.0 2.0 0.00 0.12 0.00 75 1018.9
20260831160327 83 207 0.0 2.0 0.00 0.12 0.00 76 1018.9
20260831155835 83 207 0.0 3.0 0.00 0.12 0.00 74 1018.9
20260831155339 82 207 0.0 3.0 0.00 0.12 0.00 73 1018.8
20260831154843 83 207 0.0 1.0 0.00 0.12 0.00 73 1018.8
20260831154348 82 207 0.0 2.0 0.00 0.12 0.00 74 1019.0
20260831153851 82 207 0.0 2.0 0.00 0.12 0.00 75 1019.0
20260831153334 82 207 0.0 2.0 0.00 0.12 0.00 74 1019.0
20260831152841 82 207 0.0 3.0 0.00 0.12 0.00 73 1019.0
20260831152324 82 207 0.0 2.0 0.00 0.12 0.00 73 1019.0
20260831151831 82 207 0.0 2.0 0.00 0.12 0.00 74 1019.0
20260831151356 82 207 0.0 2.0 0.00 0.12 0.00 73 1019.0
20260831150840 82 207 1.0 3.0 0.00 0.12 0.00 73 1019.2
20260831150343 82 207 0.0 3.0 0.00 0.12 0.00 73 1019.2
20260831145830 82 185 1.0 3.0 0.00 0.12 0.00 72 1019.2
20260831145337 83 355 0.0 1.0 0.00 0.12 0.00 74 1019.2
20260831144842 82 355 0.0 3.0 0.00 0.12 0.00 77 1019.2
20260831144346 81 355 0.0 4.0 0.00 0.12 0.00 78 1019.3
20260831143830 81 355 2.0 4.0 0.00 0.12 0.00 76 1019.3
20260831143335 80 355 1.0 3.0 0.00 0.12 0.00 80 1019.3
20260831142839 80 355 2.0 3.0 0.00 0.12 0.00 81 1019.3
20260831142321 80 355 0.0 2.0 0.00 0.12 0.00 82 1019.2
20260831141828 79 355 0.0 2.0 0.00 0.12 0.00 82 1019.3
20260831141336 79 355 1.0 2.0 0.00 0.12 0.00 84 1019.2
20260831140841 79 355 1.0 2.0 0.00 0.12 0.00 84 1019.1
20260831140325 79 355 0.0 2.0 0.00 0.12 0.00 85 1019.1
20260831135834 78 355 1.0 2.0 0.00 0.12 0.00 85 1019.2
20260831135357 78 355 0.0 2.0 0.00 0.12 0.00 85 1019.2
20260831134904 78 355 1.0 2.0 0.00 0.12 0.00 87 1019.3
20260831134327 78 355 0.0 3.0 0.00 0.12 0.00 87 1019.3
20260831133832 77 355 2.0 3.0 0.00 0.12 0.00 87 1019.4
20260831133339 77 355 0.0 3.0 0.00 0.12 0.00 88 1019.3
20260831132844 77 355 2.0 3.0 0.00 0.12 0.00 88 1019.4
20260831132327 77 355 2.0 3.0 0.00 0.12 0.00 90 1019.4
20260831131832 76 355 2.0 3.0 0.00 0.12 0.00 91 1019.4
20260831131335 76 355 2.0 3.0 0.00 0.12 0.00 91 1019.4
20260831130843 75 355 0.0 2.0 0.00 0.12 0.00 92 1019.4
20260831130328 75 355 1.0 3.0 0.00 0.12 0.00 92 1019.4
20260831125837 75 355 2.0 3.0 0.00 0.12 0.00 92 1019.3
20260831125400 74 355 1.0 5.0 0.00 0.12 0.00 92 1019.2
20260831124903 74 355 2.0 5.0 0.00 0.12 0.00 92 1019.2
20260831124327 74 355 3.0 4.0 0.00 0.12 0.00 92 1019.3
20260831123832 74 355 3.0 4.0 0.00 0.12 0.00 92 1019.2
20260831123336 74 355 2.0 3.0 0.00 0.12 0.00 93 1018.9
20260831122841 74 355 1.0 2.0 0.00 0.12 0.00 93 1019.0
20260831122324 74 355 1.0 2.0 0.00 0.12 0.00 93 1019.0
20260831121829 74 355 1.0 2.0 0.00 0.12 0.00 93 1019.0
20260831121333 74 355 1.0 2.0 0.00 0.12 0.00 93 1019.0
20260831120840 73 355 1.0 3.0 0.00 0.12 0.00 93 1019.0
20260831120328 73 355 2.0 3.0 0.00 0.12 0.00 93 1019.2
20260831115836 73 355 0.0 2.0 0.00 0.12 0.00 93 1019.2
20260831115340 73 355 1.0 2.0 0.00 0.12 0.00 93 1019.2
20260831114824 73 355 2.0 2.0 0.00 0.12 0.00 93 1019.1
20260831114328 73 355 0.0 1.0 0.00 0.12 0.00 93 1019.0
20260831113834 73 355 0.0 1.0 0.00 0.12 0.00 93 1018.9
20260831113342 72 355 0.0 3.0 0.00 0.12 0.00 93 1018.8
20260831112827 72 355 0.0 3.0 0.00 0.12 0.00 93 1018.8
20260831112330 72 355 0.0 0.0 0.00 0.12 0.00 93 1018.7
20260831111835 72 355 0.0 0.0 0.00 0.12 0.00 93 1018.8
20260831111339 72 355 0.0 2.0 0.00 0.12 0.00 93 1018.7
20260831110828 72 355 0.0 1.0 0.00 0.12 0.00 93 1018.8
20260831110352 72 355 1.0 1.0 0.00 0.12 0.00 93 1018.9
20260831105836 72 355 0.0 1.0 0.00 0.12 0.00 93 1018.8
20260831105340 72 355 0.0 1.0 0.00 0.12 0.00 93 1018.8
20260831104824 72 355 0.0 3.0 0.00 0.12 0.00 93 1018.6
20260831104329 72 355 1.0 3.0 0.00 0.12 0.00 93 1018.6
20260831103832 72 355 2.0 2.0 0.00 0.12 0.00 93 1018.5
20260831103339 72 355 1.0 2.0 0.00 0.12 0.00 92 1018.4
20260831102827 72 355 1.0 2.0 0.00 0.12 0.00 93 1018.2
20260831102330 72 355 0.0 0.0 0.00 0.12 0.00 93 1018.0
20260831101835 73 355 0.0 0.0 0.00 0.12 0.00 93 1018.0
20260831101339 73 355 0.0 1.0 0.00 0.12 0.00 93 1018.0
20260831100827 73 355 0.0 1.0 0.00 0.12 0.00 93 1018.0
20260831100334 73 355 0.0 1.0 0.00 0.12 0.00 93 1018.1
20260831095839 73 355 0.0 0.0 0.00 0.12 0.00 93 1018.0
20260831095342 73 355 0.0 0.0 0.00 0.12 0.00 93 1018.0
20260831094827 73 355 0.0 0.0 0.00 0.12 0.00 92 1017.9
20260831094332 73 355 0.0 0.0 0.00 0.12 0.00 92 1017.9
20260831093856 73 355 0.0 1.0 0.00 0.12 0.00 92 1017.9
20260831093340 73 355 0.0 2.0 0.00 0.12 0.00 92 1017.9
20260831092844 73 355 1.0 2.0 0.00 0.12 0.00 92 1017.8
20260831092327 73 355 1.0 2.0 0.00 0.12 0.00 93 1017.7
20260831091835 73 355 0.0 1.0 0.00 0.12 0.00 93 1017.6
20260831091343 73 355 0.0 3.0 0.00 0.12 0.00 93 1017.4
20260831090828 73 355 1.0 3.0 0.00 0.12 0.00 93 1017.5
20260831090331 73 355 1.0 3.0 0.00 0.12 0.00 93 1017.6
20260831085859 73 355 1.0 3.0 0.00 0.12 0.00 92 1017.5
20260831085341 73 355 1.0 3.0 0.00 0.12 0.00 92 1017.5
20260831084826 73 355 1.0 3.0 0.00 0.12 0.00 92 1017.4
20260831084329 73 355 2.0 3.0 0.00 0.12 0.00 92 1017.5
20260831083836 74 355 1.0 2.0 0.00 0.12 0.00 92 1017.5
20260831083343 73 355 0.0 1.0 0.00 0.12 0.00 92 1017.4
20260831082829 73 355 0.0 0.0 0.00 0.12 0.00 92 1017.3
20260831082336 73 355 0.0 1.0 0.00 0.12 0.00 92 1017.4
20260831081900 74 355 0.0 1.0 0.00 0.12 0.00 91 1017.4
20260831081326 74 355 0.0 2.0 0.00 0.12 0.00 91 1017.3
20260831080833 74 355 2.0 2.0 0.00 0.12 0.00 92 1017.4
20260831080341 74 355 0.0 3.0 0.00 0.12 0.00 92 1017.5
20260831075825 74 355 2.0 3.0 0.00 0.12 0.00 92 1017.3
20260831075329 74 355 2.0 3.0 0.00 0.12 0.00 92 1017.3
20260831074834 74 355 1.0 4.0 0.00 0.12 0.00 92 1017.3
20260831074338 74 355 2.0 4.0 0.00 0.12 0.00 92 1017.2
20260831073843 74 355 1.0 4.0 0.00 0.12 0.00 92 1017.3
20260831073327 74 360 2.0 4.0 0.00 0.12 0.00 93 1017.2
20260831072832 74 9 2.0 3.0 0.00 0.12 0.00 93 1017.2
20260831072336 74 170 0.0 3.0 0.00 0.12 0.00 93 1017.3
20260831071824 74 170 1.0 3.0 0.00 0.12 0.00 92 1017.3
20260831071349 74 170 1.0 3.0 0.00 0.12 0.00 91 1017.3
20260831070831 75 170 0.0 1.0 0.00 0.12 0.00 92 1017.2
20260831070339 75 170 0.0 2.0 0.00 0.12 0.00 92 1017.2
20260831065903 75 170 0.0 2.0 0.00 0.12 0.00 92 1017.2
20260831065326 75 170 1.0 1.0 0.00 0.12 0.00 92 1017.2
20260831064831 75 170 0.0 0.0 0.00 0.12 0.00 92 1017.2
20260831064335 75 170 0.0 3.0 0.00 0.12 0.00 91 1017.4
20260831063840 75 170 2.0 3.0 0.00 0.12 0.00 91 1017.4
20260831063324 76 170 0.0 1.0 0.00 0.12 0.00 91 1017.5
20260831062832 76 170 0.0 0.0 0.00 0.12 0.00 91 1017.7
20260831062335 76 170 0.0 0.0 0.00 0.12 0.00 91 1017.7
20260831061824 76 170 0.0 1.0 0.00 0.12 0.00 91 1017.7
20260831061329 76 170 0.0 1.0 0.00 0.12 0.00 91 1017.7
20260831060853 76 170 0.0 1.0 0.00 0.12 0.00 91 1017.7
20260831060335 76 170 0.0 3.0 0.00 0.12 0.00 90 1017.8
20260831055822 76 170 1.0 3.0 0.00 0.12 0.00 90 1017.9
20260831055328 77 170 2.0 2.0 0.00 0.12 0.00 90 1017.9
20260831054836 77 170 0.0 2.0 0.00 0.12 0.00 90 1017.9
20260831054401 76 170 1.0 2.0 0.00 0.12 0.00 90 1017.9
20260831053823 77 170 0.0 2.0 0.00 0.12 0.00 90 1017.9
20260831053331 76 170 0.0 2.0 0.00 0.12 0.00 90 1017.9
20260831052836 76 170 0.0 2.0 0.00 0.12 0.00 90 1017.9
20260831052359 76 170 0.0 4.0 0.00 0.12 0.00 89 1017.9
20260831051827 77 170 2.0 4.0 0.00 0.12 0.00 88 1017.9
20260831051351 77 170 2.0 4.0 0.00 0.12 0.00 87 1017.9
20260831050835 77 170 0.0 2.0 0.00 0.12 0.00 87 1017.7
20260831050340 77 170 0.0 0.0 0.00 0.12 0.00 87 1017.6
20260831045844 77 170 0.0 0.0 0.00 0.12 0.00 87 1017.6
20260831045328 77 170 0.0 0.0 0.00 0.12 0.00 87 1017.5
20260831044832 78 170 0.0 2.0 0.00 0.12 0.00 87 1017.5
20260831044357 78 170 0.0 2.0 0.00 0.12 0.00 87 1017.6
20260831043840 78 170 0.0 1.0 0.00 0.12 0.00 87 1017.6
20260831043343 78 170 0.0 2.0 0.00 0.12 0.00 87 1017.5
20260831042829 78 170 0.0 2.0 0.00 0.12 0.00 87 1017.7
20260831042353 78 170 0.0 0.0 0.00 0.12 0.00 86 1017.6
20260831041857 78 170 0.0 0.0 0.00 0.12 0.00 86 1017.8
20260831041340 78 170 0.0 0.0 0.00 0.12 0.00 86 1017.8
20260831040848 78 170 0.0 0.0 0.00 0.12 0.00 86 1017.8
20260831040331 78 170 0.0 0.0 0.00 0.12 0.00 85 1017.8
20260831035839 78 170 0.0 0.0 0.00 0.12 0.00 85 1017.9
20260831035321 79 170 0.0 1.0 0.00 0.12 0.12 85 1018.1
20260831034828 79 170 0.0 1.0 0.00 0.12 0.12 85 1018.0
20260831034335 78 170 0.0 0.0 0.00 0.12 0.12 85 1018.1
20260831033840 78 170 0.0 0.0 0.00 0.12 0.12 85 1018.2
20260831033325 78 170 0.0 0.0 0.00 0.12 0.12 85 1018.2
20260831032829 79 170 0.0 0.0 0.00 0.12 0.12 85 1018.2
20260831032336 79 170 0.0 0.0 0.00 0.12 0.12 85 1018.1
20260831031840 79 170 0.0 0.0 0.00 0.12 0.12 85 1018.2
20260831031325 79 170 0.0 0.0 0.00 0.12 0.12 85 1018.2
20260831030834 79 170 0.0 0.0 0.00 0.12 0.12 85 1018.2
20260831030337 79 170 0.0 0.0 0.00 0.12 0.12 84 1018.3
20260831025845 79 170 0.0 0.0 0.00 0.12 0.12 84 1018.4
20260831025328 79 170 0.0 1.0 0.00 0.12 0.12 84 1018.4
20260831024833 79 170 0.0 1.0 0.00 0.12 0.12 84 1018.3
20260831024337 80 170 0.0 0.0 0.00 0.12 0.12 83 1018.3
20260831023842 80 170 0.0 0.0 0.00 0.12 0.12 83 1018.1
20260831023327 80 170 0.0 0.0 0.00 0.12 0.12 83 1018.2
20260831022831 80 170 0.0 0.0 0.00 0.12 0.12 83 1018.2
20260831022333 80 170 0.0 0.0 0.00 0.12 0.12 83 1018.0
20260831021825 80 170 0.0 2.0 0.00 0.12 0.12 83 1018.1
20260831021350 80 170 0.0 2.0 0.00 0.12 0.12 82 1018.0
20260831020833 80 170 0.0 1.0 0.00 0.12 0.12 83 1018.3
20260831020338 80 170 0.0 2.0 0.00 0.12 0.12 82 1018.3
20260831015841 80 170 1.0 3.0 0.00 0.12 0.12 82 1018.3
20260831015348 81 170 1.0 4.0 0.00 0.12 0.12 82 1018.2
20260831014832 81 170 1.0 4.0 0.00 0.12 0.12 82 1018.3
20260831014336 81 170 2.0 3.0 0.00 0.12 0.12 82 1018.3
20260831013841 81 170 1.0 2.0 0.00 0.12 0.12 82 1018.2
20260831013325 81 170 0.0 2.0 0.00 0.12 0.12 81 1018.2
20260831012830 81 170 1.0 3.0 0.00 0.12 0.12 81 1018.2
20260831012334 81 170 1.0 3.0 0.00 0.12 0.12 81 1018.0
20260831011858 81 170 0.0 2.0 0.00 0.12 0.12 81 1017.9
20260831011325 81 170 0.0 2.0 0.00 0.12 0.12 81 1017.9
20260831010830 81 170 0.0 0.0 0.00 0.12 0.12 81 1018.0
20260831010335 81 170 0.0 0.0 0.00 0.12 0.12 81 1018.0
20260831005859 81 170 0.0 0.0 0.00 0.12 0.12 81 1017.9
20260831005342 81 170 0.0 0.0 0.00 0.12 0.12 81 1017.8
20260831004827 81 170 0.0 0.0 0.00 0.12 0.12 81 1017.5
20260831004331 81 170 0.0 0.0 0.00 0.12 0.12 81 1017.5
20260831003834 81 170 0.0 0.0 0.00 0.12 0.12 81 1017.4
20260831003342 81 170 0.0 0.0 0.00 0.12 0.12 81 1017.3
20260831002847 81 170 0.0 0.0 0.00 0.12 0.12 81 1017.2
20260831002329 81 170 0.0 0.0 0.00 0.12 0.12 80 1017.2
20260831001834 81 170 0.0 0.0 0.00 0.12 0.12 80 1017.1
20260831001338 82 170 0.0 0.0 0.00 0.12 0.12 80 1017.0
20260831000847 82 170 0.0 0.0 0.00 0.12 0.12 80 1017.0
20260831000334 82 170 0.0 0.0 0.00 0.12 0.12 80 1017.0
20260830235838 82 170 0.0 0.0 0.00 0.12 0.12 81 1017.0
20260830235342 83 170 0.0 0.0 0.00 0.12 0.12 81 1016.9
20260830234826 83 170 0.0 0.0 0.00 0.12 0.12 80 1016.7
20260830234331 83 170 0.0 0.0 0.00 0.12 0.12 79 1016.7
20260830233835 83 170 0.0 0.0 0.00 0.12 0.12 79 1016.8
20260830233340 84 170 0.0 0.0 0.00 0.12 0.12 78 1017.0
20260830232905 84 170 0.0 1.0 0.00 0.12 0.12 77 1016.9
20260830232327 84 170 0.0 3.0 0.00 0.12 0.12 77 1017.0
20260830231831 84 170 0.0 3.0 0.00 0.12 0.12 76 1017.0
20260830231336 85 170 0.0 0.0 0.00 0.12 0.12 75 1017.0
20260830230824 85 170 0.0 0.0 0.00 0.12 0.12 75 1017.0
20260830230330 85 170 0.0 1.0 0.00 0.12 0.12 75 1017.0
20260830225838 85 170 0.0 1.0 0.00 0.12 0.12 74 1017.0
20260830225342 85 170 0.0 1.0 0.00 0.12 0.12 74 1017.0
20260830224826 86 170 0.0 2.0 0.00 0.12 0.12 74 1017.0
20260830224331 86 170 0.0 3.0 0.00 0.12 0.12 73 1016.9
20260830223835 86 170 0.0 3.0 0.00 0.12 0.12 73 1017.0
20260830223340 86 170 0.0 1.0 0.00 0.12 0.12 74 1017.0
20260830222844 86 170 0.0 1.0 0.00 0.12 0.12 74 1017.1
20260830222328 86 170 0.0 1.0 0.00 0.12 0.12 74 1017.2
20260830221837 86 170 0.0 3.0 0.00 0.12 0.12 74 1017.1
20260830221341 86 170 0.0 3.0 0.00 0.12 0.12 73 1017.1
20260830220846 86 170 0.0 2.0 0.00 0.12 0.12 75 1017.0
20260830220329 86 170 1.0 2.0 0.00 0.12 0.12 74 1017.1
20260830215834 86 170 0.0 3.0 0.00 0.12 0.12 74 1017.1
20260830215337 86 170 0.0 3.0 0.00 0.12 0.12 74 1017.0
20260830214902 86 170 0.0 2.0 0.00 0.12 0.12 74 1016.9
20260830214325 86 170 1.0 3.0 0.00 0.12 0.12 73 1016.9
20260830213830 86 170 0.0 3.0 0.00 0.12 0.12 73 1017.1
20260830213335 86 170 1.0 3.0 0.00 0.12 0.12 73 1017.0
20260830212839 86 170 0.0 5.0 0.00 0.12 0.12 75 1017.0
20260830212321 86 101 1.0 5.0 0.00 0.12 0.12 75 1017.0
20260830211849 86 145 1.0 4.0 0.00 0.12 0.12 76 1017.0
20260830211340 86 138 1.0 4.0 0.00 0.12 0.12 75 1017.0
20260830210824 86 117 1.0 4.0 0.00 0.12 0.12 75 1017.1
20260830210329 85 206 0.0 5.0 0.00 0.12 0.12 76 1017.1
20260830205834 85 140 1.0 5.0 0.00 0.12 0.12 77 1017.0
20260830205336 85 190 1.0 4.0 0.00 0.12 0.12 78 1017.0
20260830204844 84 211 1.0 4.0 0.00 0.12 0.12 78 1016.9
20260830204348 84 191 2.0 3.0 0.00 0.12 0.12 81 1017.0
20260830203832 83 196 0.0 5.0 0.00 0.12 0.12 83 1016.9
20260830203336 83 188 2.0 5.0 0.04 0.12 0.12 83 1017.0
20260830202901 82 167 1.0 3.0 0.10 0.12 0.12 84 1017.1
20260830202344 82 85 0.0 3.0 0.12 0.12 0.12 83 1017.1
20260830201828 82 180 1.0 3.0 0.12 0.12 0.12 84 1017.3
20260830201335 82 121 1.0 3.0 0.12 0.12 0.12 86 1017.5
20260830200904 81 141 1.0 4.0 0.12 0.12 0.12 87 1017.4
20260830200327 81 117 1.0 5.0 0.12 0.12 0.12 87 1017.6
20260830195831 80 153 2.0 5.0 0.12 0.12 0.12 88 1017.6
20260830195334 80 134 2.0 4.0 0.12 0.12 0.12 87 1017.8
20260830194842 80 133 1.0 3.0 0.12 0.12 0.12 87 1017.7
20260830194346 80 145 0.0 5.0 0.12 0.12 0.12 84 1017.6
20260830193830 81 202 2.0 5.0 0.12 0.12 0.12 82 1017.7
20260830193334 82 123 1.0 6.0 0.08 0.08 0.08 80 1017.9
20260830192838 84 203 0.0 6.0 0.02 0.02 0.02 77 1018.0
20260830192325 85 254 3.0 5.0 0.00 0.00 0.00 73 1017.8
20260830191830 86 271 1.0 4.0 0.00 0.00 0.00 70 1017.8
20260830191338 86 274 2.0 6.0 0.00 0.00 0.00 69 1017.7
20260830190823 87 325 2.0 6.0 0.00 0.00 0.00 68 1017.8
20260830190331 88 292 3.0 5.0 0.00 0.00 0.00 66 1017.9
20260830185835 89 262 0.0 11.0 0.00 0.00 0.00 64 1017.8
20260830185339 89 272 3.0 11.0 0.00 0.00 0.00 62 1017.8
20260830184903 90 221 2.0 4.0 0.00 0.00 0.00 65 1017.8
20260830184346 89 159 0.0 5.0 0.00 0.00 0.00 63 1017.9
20260830183833 89 267 2.0 6.0 0.00 0.00 0.00 67 1018.1
20260830183357 89 195 3.0 6.0 0.00 0.00 0.00 65 1018.1
20260830182841 89 62 2.0 4.0 0.00 0.00 0.00 66 1018.2
20260830182323 88 88 1.0 4.0 0.00 0.00 0.00 70 1018.4
20260830181831 88 5 1.0 3.0 0.00 0.00 0.00 67 1018.6
20260830181335 88 189 0.0 2.0 0.00 0.00 0.00 69 1018.7
20260830180844 88 189 0.0 5.0 0.00 0.00 0.00 68 1018.8
20260830180329 88 189 1.0 6.0 0.00 0.00 0.00 68 1018.8
20260830175833 88 180 4.0 7.0 0.00 0.00 0.00 68 1018.9
20260830175337 88 199 1.0 7.0 0.00 0.00 0.00 68 1018.9
20260830174901 88 203 3.0 6.0 0.00 0.00 0.00 69 1018.8